Location: *
(50.3194°N, 7.1067°E)
Time: 02:04:12
(UTC+00:00)

Cosmos 1544 Rocket - Pass Details

Date: 22 September 2019
Orbit: 604 x 632 km, 82.5° (Epoch: 15 October)

Event Time Altitude Azimuth Distance (km) Brightness Sun altitude
Rises 19:42:07 0° 198° (SSW) 2,914 6.9 -21.0°
Reaches altitude 10° 19:44:22 10° 201° (SSW) 2,010 6.1 -21.3°
Maximum altitude 19:48:47 62° 282° (WNW) 717 4.0 -22.0°
Drops below altitude 10° 19:53:14 10° 4° (N) 2,019 6.5 -22.6°
Sets 19:55:30 0° 8° (N) 2,928 7.3 -22.9°
